[Date Prev][Date Next][Thread Prev][Thread Next][Date Index][Thread Index]

[jamsat-news:1716] jas2info #276



========================   ºÇ¿·¾ðÊó   ==============================

        Last updated ¡¡28May2002 ¡¡19:40(JST)   #276

====================================================================
   
£±¡Ë¥¢¥Þ¥Á¥å¥¢ÄÌ¿®±ÒÀ±¾ðÊ󡢣ƣϥ·¥ê¡¼¥º¤Îµ°Æ»Í×ÁÇ¡¢¥Æ¥ì¥á¥È¥ê¡¢£Ñ£Ó£Ï¤Î
¡¡¡¡¡¡¾õ¶·Åù¤ò¤Þ¤È¤á¤Æ¤ß¤Þ¤·¤¿¡¥
¡¡¡¡¡¡
¡¡£Æ£Ï¡Ý£²£¹¤Î£²£°£°£²Ç¯£µ·î£²£¸Æü¡Ê²Ð¡Ë¤Î£±£¸¡§£³£²¡Ê£Ê£Ó£Ô¡Ë¤Î¥Ñ¥¹¤Ç¤Ï
£Ê£Á£Ò£Ì¤Î¥Û¡¼¥à¥Ú¡¼¥¸¤Î¤È¤¦¤ê¥¢¥Ê¥í¥°±¿ÍѤǤ·¤¿¡£¡¡º£Æü¤Þ¤Ç¤Î´Ñ¬¤·¤¿
¥Æ¥ì¥á¥È¥ê¡¼¤ÈºÇ½ª¤ÎʬÀÏ·ë²Ì¤òÊó¹ð¤·¤Æ¤ª¤­¤Þ¤¹¡£

AS28532C  28May2002
18:32-18:45(JST)
AOS   MEL  LOS  Elev
  9   287  202  66.0
Freq. 435.804-.785MHz

HI HI AE 07 88 55 00 D4 00 00 09 00 B4 64 63 56 8D 8A 97 7B 8B 8F 8D 87 84 
HI HI AE 07 88 55 00 D4 00 00 09 00 A5 66 62 54 8D 8A 97 7B 8B 8F 8D 87 84 
HI HI AE 07 88 55 00 D4 00 00 09 00 95 66 61 56 8D 8A 97 7B 8B 8F 8D 87 84 
HI HI AE 07 88 55 00 D4 00 00 09 00 AB 63 59 56 8D 8A 96 79 8B 8F 8D 87 84 
HI HI AE 07 88 55 00 D4 00 00 09 00 72 60 5A 57 8C 8A 96 82 8B 8F 8D 87 84 
HI HI AE 07 88 55 00 D4 00 00 09 00 75 5E 58 57 8C 8A 88 85 87 8F 8D 87 84
HI HI AE 07 88 55 00 D4 00 00 09 00 8C 5A 56 5C 8A 87 94 7D 8B 8F 8D 87 84 
HI HI AE 07 88 55 00 D4 00 00 09 00 78 56 4E 61 89 86 93 69 8B 8F 8D 87 84 
HI HI AE 07 88 55 00 D4 00 00 09 00 62 56 4B 61 88 86 92 73 8B 8F 8D 87 84 
HI HI AE 07 88 55 00 D4 00 00 09 00 4E 5A 4C 61 88 85 91 7E 8B 8F 8D 87 84
HI HI AE 07 88 55 00 D4 00 00 09 00 5E 60 4E 62 87 85 91 77 8B 8F 8D 87 84 
HI HI AE 07 88 55 00 D4 00 00 09 00 34 68 4E 60 87 85 91 78 8B 8F 8D 87 84 
HI HI AE 07 88 55 00 D4 00 00 09 00 31 6F 50 60 87 84 91 75 8B 8F 8D 87 84 
HI HI AE 07 88 55 00 D4 00 00 09 00 35 74 58 5B 87 85 91 73 8B 8F 8D 87 84 
HI HI AE 07 88 55 00 D4 00 00 09 00 42 73 58 5B 88 85 91 70 8B 8F 8D 87 84 
HI HI AE 07 88 55 00 D4 00 00 09 00 51 6E 59 5B 88 85 92 6B 8B 8F 8D 87 84 

AS28478C  24May2002
18:41-18:54(JST)
AOS   MEL  LOS  Elev
  7   288  206  57.2
Freq. 435.803-.787MHz

HI HI AE 07 88 55 00 D4 E5 0C 09 41 6A C0 75 4A 92 8E 9E 7D 8F 8C 87 8A 82 
HI HI AE 07 88 55 00 D4 E5 0C 09 41 6F C0 7A 4A 92 8E 9D 7D 90 8C 87 8A 82 
HI HI AE 07 88 55 00 D4 E5 0C 09 41 73 BD 7B 4A 92 8E 9B 71 90 8C 87 8A 82 
HI HI AE 07 88 55 00 D4 E5 0C 09 41 78 B8 7C 4A 92 8E 9B 8A 90 8C 87 8A 82 
HI HI AE 07 88 55 00 D4 E5 0C 09 41 7B D2 7A 4B 91 8E 9B 78 90 8C 87 8A 82 
HI HI AE 07 88 55 00 D4 E5 0C 09 41 7D AA 79 4C 91 8E 9B 73 90 8C 87 8A 82 
HI HI AE 07 88 55 00 D4 E5 0C 09 41 7F A2 75 4E 91 8E 9B 71 90 8C 87 8A 82 
HI HI AE 07 88 55 00 D4 E5 0C 09 41 80 99 73 4E 91 8E 9A 6B 90 8C 86 8A 82 
HI HI AE 07 88 55 00 D4 E5 0C 09 41 80 8F 6E 50 8F 8C 99 AB 90 8C 87 8A 82 
HI HI AE 07 88 55 00 D4 E5 0C 09 41 80 85 67 58 8E 8B 98 6E 90 8C 86 8A 82 
HI HI AE 07 88 55 00 D4 E5 0C 09 41 80 7B 65 56 8D 8A 97 6A 90 8C 66 8A 82  
HI HI AE 07 88 55 00 D4 E5 0C 09 41 80 73 65 55 8D 89 96 89 90 8C 56 8A 72 
HI HI AE 07 88 55 00 D4 E5 0C 09 41 80 6A 6B 55 8D 8A 97 6C 99 8C 86 8A 82 
HI HI AE 07 88 55 00 D4 E5 0C 09 41 80 75 6E 56 90 8B 98 72 8F 8C 86 8A 82 
HI HI AE 07 88 55 00 D4 E5 0C 09 41 80 5E 70 4F 90 8D 8A A7 90 8F 86 8A 82 
HI HI AE 07 88 55 00 D4 E5 0C 09 41 72 4E 70 50 90 8E 9B 78 8F 8B 86 89 82 
HI HI AE 07 88 55 00 D4 E5 0C 09 41 81 55 6F 51 90 8D 9A 86 8F 8B 86 8A 82 
HI HI AE 07 88 55 00 D4 E5 0C 09 41 82 52 6D 51 90 8C 99 

AS28465C 23May2002
19:37-19:47(JST)
AOS   MEL  LOS  Elev
355   297  236  19.2
Freq. 435.800-.787MHz

HI HI AE 07 88 55 00 D4 2F 5A 09 0B 75 60 67 54 8E 8B 97 6D 8C 88 8C 8E 83 
HI HI AE 07 88 55 00 D4 2F 5A 09 0C 6F 62 65 56 8D 8A 97 69 8C 88 8B 8E 83 
HI HI AE 07 88 55 00 D4 2F 5A 09 0C 6A 67 69 53 8D 8A 97 64 8C 88 8B 8E 83 
HI HI AE 07 88 55 00 D4 2F 5A 09 0C 65 6D 6D 51 8E 8A 97 7A 8C 88 8B 8E 82 
HI HI AE 07 88 55 00 D4 2F 5A 09 0C 62 75 71 4F 8F 8C 99 74 8C 88 8B 8E 82 
HI HI AE 07 88 55 00 D4 2F 5A 09 0C 5F 7F 75 51 90 8D 9B 8C 8C 88 8B 8E 83 
HI HI AE 07 88 55 00 D4 2F 5A 09 0C 5F 89 76 4C 91 8D 9B 7F 8C 88 8D 8E 83 
HI HI AE 07 88 55 00 D4 2F 5A 09 0C 5F 83 6A 4E 91 8D 9A 6E 8C 88 8B 8E 83 
HI HI AE O7 88 55 00 D4 2F 5A 09 0C 5F 80 65 4E 90 8D 9A 7A 8C 89 8B 8D 83
HI HI AE 07 88 55 00 D4 2F 5A 09 0C 69 A3 75 4C 90 8D 9A 5F 8C 89 8B 8D 83
HI HI AE 07 88 55 00 D4 2F 5A 09 0C 6E A9 73 4E 90 8D 99 5E 8C 89 8B 8D 83 
HI HI AE 07 88 55 00 D4 2F 5A 09 0C 75 AB 71 4E 8F 8C 99 6C 8C 89 8B 8D 82 
HI HI AE 07 88 55 00 D4 2F 5A 09 0C 7B AB 6D 52 8F 8C 99 70 8B 89 8B 8D 83 
HI HI AE 07 88 55 00 D4 2F 5A 09 0C 80 A9 6B 56 8E 8B 98 5D 8B 89 8B 8B 83

AS28451C  22May2002
18:43-18:59(JST)
AOS   MEL  LOS  Elev
  7   287  208  53.5
Freq. 435.804-.785MHz

HI HI AE 07 88 55 00 D4 00 00 09 00 2E 3D 6D 52 8F 8C 99 70 91 92 8A 87 85 
HI HI AE 07 88 55 00 D4 00 00 09 00 32 38 70 50 90 8D 9A 75 91 92 8A 87 85 
HI HI AE 07 88 55 00 D4 00 00 09 00 36 34 74 4F 91 8D 9A 81 91 92 8A 87 85 
HI HI AE 07 88 55 00 D4 00 00 09 00 3A 30 77 4C 91 8D 9B 7D 91 92 8A 87 85 
HI HI AE 07 88 55 00 D4 00 00 09 00 3E 2F 79 4C 91 8D 8B 71 91 92 7A 87 85 
HI HI AE 07 88 55 00 D4 00 00 09 00 41 2D ^A 4B 91 8D 9B 77 91 93 6A 87 75 
HI HI AE 07 88 55 00 D4 00 00 09 00 45 3C 7A 4A 91 8D 9B 75 91 93 8A 86 85 
HI HI AE 07 88 55 00 D4 00 00 09 00 4A 2C 7B 4A 91 8D 9B 6F 91 92 8A 86 85 
HI HI AE 07 88 55 00 D4 00 00 09 00 4B 2D 7C 49 91 8D 9B 86 91 92 8A 86 85 
HI HI AE 07 88 55 00 D4 00 00 09 00 4D 2E 7D 49 91 8E 9B 77 91 92 8A 86 84 
HI HI AE 07 88 55 00 D4 00 00 09 00 4F 2F 7D 48 91 8E 9B 74 91 92 8A 86 84 
HI HI AE 07 88 55 00 D4 00 00 09 00 52 31 7E 49 92 8D 9B 76 91 92 8A 86 84 
HI HI AE 07 88 55 00 D4 00 00 09 00 53 33 7E 48 91 8D 9B 7C 91 92 8A 86 84 
HI HI AE 07 88 55 00 D4 00 00 09 00 55 35 7C 49 91 8D 9B 6F 91 62 89 86 84 
HI HI AE 07 88 55 00 D4 00 00 09 00 56 36 7B 4A 91 8D 9B 7D 91 92 89 86 84 
HI HI AE 07 88 55 00 D4 00 00 09 00 57 37 79 4A 91 8D 9A 81 91 92 89 86 84 
HI HI AE 07 88 55 00 D4 00 00 09 00 59 38 78 4A 80 8D 9A 94 91 92 89 86 84 
HI HI AE 07 88 55 00 D4 00 00 09 00 5A 38 76 4D 90 8D 9A 7F 91 92 89 86 84 
HI HI AE 07 88 55 00 D4 00 00 09 00 5B 38 75 4D 99 8D 9A 76 91 92 89 86 84 
HI HI AE 07 88 55 00 D4 00 00 09 00 

AS28437C  21May2002
18:03-18:08(JST)
AOS   MEL  LOS  Elev
 18   100  181  53.2
Freq. 435.787-.785MHz


HI HI AE 07 88 55 00 D4 72 37 09 0E 9D 71 4C 65 88 85 92 6F 8B 8C 8E 8C 83 
HI HI AE 07 88 55 00 D4 72 37 09 0E 9E 6B 4B 61 87 85 91 7F 8B 8C 8E 8C 83 
HI HI AE 07 88 55 00 D4 72 37 09 0E 98 67 48 61 87 75 91 7E 8B 8C 8E 8D 83 
HI HI AE 07 88 55 00 D4 72 37 09 0E 96 5B 45 61 87 75 91 7A 8B 8C 8E 8D 83 
HI HI AE 07 88 55 00 D4 72 37 09 0E 94 53 4A 62 87 84 90 77 8B 8C 8E 8C 83 
HI HI AE 07 88 55 00 D4 72 37 09 0E 8E 5B 4C 60 87 74 90 75 8B 8C 8E 8C 84 

AS28424C  20May2002
18:47-19:03(JST)
AOS   MEL  LOS  Elev
  6   288  209  50.2
Freq. 435.804-.785MHz
HI HI AE 07 88 55 00 D4 F4 B2 09 49 54 B7 74 4D 8F 8C 99 7A 88 89 90 8E 84 
HI HI AE 07 88 55 00 D4 F4 B2 09 49 5C BB 74 4E 8F 8C 99 82 89 89 90 8E 84 
HI HI AE 07 88 55 00 D4 F4 B2 09 49 64 BE 72 52 8F 8B 98 86 89 89 90 8E 83 
HI HI AE 07 88 55 00 D4 F4 B2 09 49 6B BF 71 50 8F 8B 99 7D 89 88 90 8E 83 
HI HI AE 07 88 55 00 D4 F4 B2 09 49 73 BF 70 50 8F 8B 98 72 89 88 90 8E 83 
HI HI AE 07 88 55 00 D4 F4 B2 09 49 7A BD 6F 4F 8F 8B 98 6E 89 88 90 8E 83 
HI HI AE 07 88 55 00 D4 F4 B2 09 49 80 B  6F 50 8E 8B 98 79 89 88 90 8E 83 
HI HI AE 07 88 55 00 D4 F4 B2 09 49 85 B5 6E 51 8E 8B 98 77 89 88 90 8E 83 
HI HI AE 07 88 55 00 D4 F4 B2 09 49 8A AF 6E 51 8E 8B 98 62 89 88 90 8E 83 
HI HI AE 07 88 55 00 D4 F4 B2 09 49 8D AA 6E 4F 8E 8B 98 67 88 88 90 8E 83 
HI HI AE 07 88 55 00 D4 F4 B2 09 49 90 A4 70 4E 8F 8B 98 61 88 88 90 8F 83 
HI HI AE 07 88 55 00 D4 F4 B2 09 49 92 9D 71 4E 8F 8C 99 7D 88 88 90 8E 83 
HI HI AE 07 88 55 00 D4 F4 B2 09 49 93 97 72 4E 8F 8C 99 7E 88 88 90 8E 83 
HI HI AE 07 88 55 00 D4 F4 B2 09 49 93 91 72 4E 90 8C 99 7C 88 88 90 8E 83 
HI HI AE 07 88 55 00 D4 F4 B2 09 49 93 8C 73 4D 99 8C 99 62 88 87 91 8E 65 
HI HI AE 07 88 55 00 D4 F4 B2 09 49 92 87 74 4D 90 8D 99 60 88 87 91 8E 83 
HI HI AE 07 88 55 00 D4 F4 B2 09 49 91 83 73 4D 90 8C 99 60 88 87 90 8E 83 
HI HI AE 07 78 55 00 D4 F4 B2 09 49 8F 7F 73 4D 90 8C 99 8C 88 87 90 8F 83 
HI HI AE 07 88 55 00 D4 F4 B2 09 49 8E 7C 71 4F 90 8C 99 77 88 87 91 8F 83
HI HI AE 07 88 55 00 D4 F4 B2 09 49 8C 79 70 50 8F 8C 99 6A 87 87 91 8F 83 
HI HI AE 07 88 55 00 D4 F4 B2 09 49 8A 77 6D 50 8F 8B 98 82 87 87 91 8F 83 
 
------------------------¡¡£Æ£Ï-£²£¹¤Îµ°Æ»Í×ÁÇ¡¡------------------------------        
 
¡¡¡¡¢£ µ°Æ»Í×ÁÇ£±¡§¡Öjamsat¡Ýkeps¡§£±£²£°£·¡×¤è¤ê         
¡¡¡¡¡¡¡¡¡¡¡¡¡¡¡¡¡¡¡¡SB KEPS @ AMSAT  $ORB02143.N
¡¡¡¡¡¡¡¡¡¡¡¡¡¡¡¡¡¡¡¡2Line Orbital Elements 02143.AMSAT

HR AMSAT ORBITAL ELEMENTS FOR AMATEUR SATELLITES IN NASA FORMAT
FROM WA5QGD FORT WORTH,TX May 23, 2002
SEND SUBSCRIBE/UNSUBSCRIBE TO majordomo@amsat.org ONLY
BID: ORB02143.N

¡¡DECODE 2-LINE ELSETS WITH THE FOLLOWING KEY:
¡¡1 AAAAAU 00  0  0 BBBBB.BBBBBBBB  .CCCCCCCC  00000-0  00000-0 0  DDDZ
¡¡2 AAAAA EEE.EEEE FFF.FFFF GGGGGGG HHH.HHHH III.IIII JJ.JJJJJJJJKKKKKZ
¡¡KEY: A-CATALOGNUM B-EPOCHTIME C-DECAY D-ELSETNUM E-INCLINATION F-RAAN
¡¡G-ECCENTRICITY H-ARGPERIGEE I-MNANOM J-MNMOTION K-ORBITNUM Z-CHECKSUM

FO-29
1 24278U 96046B   02142.08385452  .00000034  00000-0  71296-4 0  4993
2 24278  98.5138 325.7039 0350301 202.9927 155.5200 13.52839835284460

 ¢£ µ°Æ»Í×ÁÇ£²¡§¡Öjamsat¡Ýkeps¡§£±£²£°£¶¡×¤è¤ê
¡¡¡¡¡¡¡¡¡¡¡¡¡¡¡¡SB KEPS @ AMSAT  $ORB02143.O
¡¡¡¡¡¡¡¡¡¡¡¡¡¡¡¡Orbital Elements  02143.OSCAR

HR AMSAT ORBITAL ELEMENTS FOR OSCAR SATELLITES
FROM WA5QGD FORT WORTH,TX May 23, 2002
SEND SUBSCRIBE/UNSUBSCRIBE TO majordomo@amsat.org ONLY
BID: ORB02143.O
TO ALL RADIO AMATEURS BT

Satellite: FO-29
Catalog number: 24278
Epoch time:      02142.08385452
Element set:     499
Inclination:       98.5138 deg
RA of node:       325.7039 deg
Eccentricity:    0.0350301
Arg of perigee:   202.9927 deg
Mean anomaly:     155.5200 deg
Mean motion:   13.52839835 rev/day
Decay rate:        3.4e-07 rev/day^2
Epoch rev:           28446
Checksum:              313

